Location: Apollinopolis Magna
(24.9792°N, 32.8772°E)
Time: 04:15:37
(UTC+00:00)

Helios 1A Rocket - Pass Details

Date: 02 March 2021
Orbit: 563 x 585 km, 98.3° (Epoch: 12 April)

Event Time Altitude Azimuth Distance (km) Brightness Sun altitude
Rises 17:28:23 0° 181° (S) 2,775 6.4 -22.8°
Reaches altitude 10° 17:30:36 10° 188° (S) 1,876 5.6 -23.3°
Maximum altitude 17:34:28 43° 260° (W) 813 4.1 -24.2°
Drops below altitude 10° 17:38:20 10° 332° (NNW) 1,872 5.9 -25.0°
Sets 17:40:33 0° 339° (NNW) 2,768 6.7 -25.5°
